This is the latest recevied weather packets stored in our database for station/object DC1NF-6. If no packets are shown the sender has not sent any weather packets the latest 10 day(s).
| Time | Temp. | Humidity | Pressure | Rain* | Wind** | Luminosity | Snow |
|---|---|---|---|---|---|---|---|
| 1777809916 | 27.22° C | 33% | 1013.9 hPa | 0 mm | - | - | - |
| 1777809373 | 28.33° C | 28% | 1014 hPa | 0 mm | - | - | - |
| 1777808768 | 27.22° C | 29% | 1014.1 hPa | 0 mm | - | - | - |
| 1777808165 | 26.11° C | 31% | 1014.2 hPa | 0 mm | - | - | - |
| 1777807561 | 27.78° C | 29% | 1014.3 hPa | 0 mm | - | - | - |
| 1777806957 | 27.22° C | 30% | 1014.3 hPa | 0 mm | - | - | - |
| 1777806353 | 27.22° C | 32% | 1014.4 hPa | 0 mm | - | - | - |
| 1777805750 | 26.67° C | 31% | 1014.5 hPa | 0 mm | - | - | - |
| 1777805146 | 26.11° C | 31% | 1014.6 hPa | 0 mm | - | - | - |
| 1777804541 | 26.67° C | 33% | 1014.6 hPa | 0 mm | - | - | - |
| 1777803938 | 26.11° C | 34% | 1014.9 hPa | 0 mm | - | - | - |
| 1777803334 | 25.56° C | 35% | 1014.9 hPa | 0 mm | - | - | - |
| 1777802729 | 25° C | 34% | 1015.1 hPa | 0 mm | - | - | - |
| 1777802130 | 25° C | 36% | 1015.3 hPa | 0 mm | - | - | - |
| 1777801522 | 24.44° C | 36% | 1015.4 hPa | 0 mm | - | - | - |
| 1777800918 | 23.33° C | 36% | 1015.5 hPa | 0 mm | - | - | - |
| 1777800315 | 22.78° C | 38% | 1015.6 hPa | 0 mm | - | - | - |
| 1777799772 | 21.67° C | 40% | 1015.6 hPa | 0 mm | - | - | - |
| 1777799168 | 21.67° C | 39% | 1015.5 hPa | 0 mm | - | - | - |
| 1777798564 | 23.33° C | 36% | 1015.5 hPa | 0 mm | - | - | - |
| 1777797961 | 23.33° C | 38% | 1015.4 hPa | 0 mm | - | - | - |
| 1777797357 | 23.33° C | 40% | 1015.4 hPa | 0 mm | - | - | - |
| 1777796753 | 23.89° C | 37% | 1015.4 hPa | 0 mm | - | - | - |
| 1777796150 | 23.33° C | 39% | 1015.4 hPa | 0 mm | - | - | - |
| 1777795546 | 21.67° C | 41% | 1015.4 hPa | 0 mm | - | - | - |
* Rain latest hour (hover to see other rain measurements)
** Current wind speed in m/s (hover to see current wind gust speed)